Simultaneous Nadir Overpasses (SNOs) Predictions

Prediction of SNOs between GOES-14 and NOAA-20 Satellite Orbit:

Table of predicted SNOs for the next 14.0 days since TLE Epoch: 10/24/2020
Index Date Time (GOES-14) GOES-14 Lat,Lon NOAA-20 Lat,Lon Distance(km) Time Diff (sec)
1 10/26/2020 08:26:04 0.14,-104.38 0.28,-105.00 70.48 80
2 10/27/2020 08:04:39 0.16,-104.37 -0.71,-100.47 444.83 80
3 10/28/2020 20:26:36 -0.13,-104.27 -0.47,-105.78 172.38 80
4 10/29/2020 20:10:32 -0.14,-104.27 0.52,-101.24 345.03 80
5 10/31/2020 08:32:22 0.11,-104.40 0.56,-106.54 242.98 80
6 11/01/2020 08:10:58 0.13,-104.39 -0.43,-102.00 272.55 80
7 11/02/2020 20:32:54 -0.10,-104.25 -0.80,-107.30 348.16 80
8 11/03/2020 20:16:50 -0.12,-104.26 0.19,-102.77 169.00 80
9 11/05/2020 08:38:40 0.09,-104.41 0.89,-108.06 416.26 80
10 11/06/2020 08:17:15 0.10,-104.39 -0.10,-103.53 98.91 80
